Погода в Звизжах

Россия / Калужская область     54°44′39″N   35°38′13″E
темп.,
°C
ветер,
м/с
пор.,
м/с
влажн.,
%
обл.,
%
осадки,
мм/ч
давл.,
гПа
погр.,
м
1 декабря, ср
ср100:00−2зюз71576100 0.1 9861151
03:00−2зюз61276100 0.1 9891133
06:00−3зюз61180100 0.1 9891051
09:00−3зюз51078100 0.1 9901103
12:00−2зюз51074100 0.1 9911172
15:00−3з5977100 0.1 9921087
18:00−4з5878100 0.1 995949
21:00−6з4982100 0.1 997711
2 декабря, чт
чт200:00−7з388487 0.0 999553
03:00−7з388671 0.0 1001439
06:00−7юз2686100 0.0 1002299
09:00−6ю3885100 0.0 1003333
12:00−3ю51276100 0.0 1000617
15:00−2ю51494100 0.9 998695
18:00−1ююз51496100 1.8 998700
21:00+1юз51397100 2.2 999642
3 декабря, пт
пт300:00+1ююз51296100 0.1 1001612
03:00+2юз51290100 0.1 1002787
06:00+2юз4989100 0.0 1003675
09:000ю3996100 0.0 1004233
12:00+1ююв41097100 0.6 1002627
15:00+2ююв41292100 1.5 1000725
18:00+3ю41296100 0.3 999952
21:00+2юз4998100 2.3 1000628
4 декабря, сб
сб400:000з4996100 0.7 1002586
03:00−1зюз4992100 1.1 1005733
06:00−3зюз411916 0.0 1007479
09:00−3юз411926 0.0 1009418
12:00−2юз4108270 0.0 1011610
15:00−2юз498193 0.0 1011662
18:00−2юз398889 0.0 1012476
21:00−1юз3684100 0.0 1013695
5 декабря, вс
вс500:00−2юз259476 0.1 1015320
03:00−3зюз139786 0.1 1016122
06:00−3с1294100 0.1 1016140
09:00−3всв128999 0.1 1017192
12:00−2всв238386 0.0 1017451
15:00−2всв2481100 0.0 1017585
18:00−2в3582100 0.0 1018626
21:00−2всв367898 0.0 1018690